Location: *
(49.6619°S, 177.4603°W)
Time: 00:46:10
(UTC+00:00)

CENTAUR R/B - Pass Details

Date: 31 January 2023
Orbit: 709 x 1477 km, 63.4° (Epoch: 16 March)

Event Time Altitude Azimuth Distance (km) Brightness Sun altitude
Rises 08:51:20 0° 231° (SW) 3,463 7.6 -10.7°
Reaches altitude 10° 08:54:37 10° 248° (WSW) 2,406 5.8 -11.1°
Maximum altitude 08:58:16 19° 290° (WNW) 1,783 4.2 -11.5°
Drops below altitude 10° 09:01:40 10° 333° (NNW) 2,226 4.2 -11.9°
Enters shadow 09:04:12 - 350° (N) 2,981 4.7 -12.2°
